Orbital Elements at Epoch 2459200.5 (2020-Dec-17.0) TDB
Reference: JPL 19 (heliocentric ecliptic J2000)
Element | Value | Uncertainty (1-sigma) | Units |
e | .07559434774609038 | 3.443e-08 | |
a | 2.31498199720971 | 9.4634e-09 | au |
q | 2.1399824430867 | 8.248e-08 | au |
i | 8.009740430918226 | 4.0294e-06 | deg |
node | 72.71779419072367 | 3.3454e-05 | deg |
peri | 188.22663295 | 5.2352e-05 | deg |
M | 224.1013709451315 | 4.2449e-05 | deg |
tp | 2459686.160104217942 (2022-Apr-16.66010422) | 0.000153 | TDB |
period | 1286.529810744957 3.52 | 7.8888e-06 2.16e-08 | d yr |
n | .279822509352927 | 1.7158e-09 | deg/d |
Q | 2.489981551332719 | 1.0179e-08 | au |
|
| | Orbit Determination Parameters
Additional Information
|